EW3870 Shanghai CN current weather conditions

sailwx.info

Air temperature 22.2° C
Dewpoint 17.6° C

Last reported at 2020-Sep-29 15:00 UTC.
Time now 2020-Sep-29 16:14 UTC

Location: N 31°14' E 121°35'.
View on Google Maps.

See reports from other nearby stations

  
Tides and Currents Weather Stations Pressure Air Temp Water Temp Dewpoint Dewpoint Depression Visibility Wind Speed Wind Dir Waves Ship Positions
date/time (UTC)wind fromknots sea level pressurealtimeterstation pressurevisibilityair tempwater tempwave heightnotes
2020-Sep-29 15:00 22.2
2020-Sep-29 14:50 167 22.2
2020-Sep-29 14:40 22.2
2020-Sep-29 14:30 22.2
2020-Sep-29 14:20 148 0 gusting 2 22.2
2020-Sep-29 14:10 22.2
2020-Sep-29 14:00 084 22.2
2020-Sep-29 13:50 144 0 gusting 2 22.2
2020-Sep-29 13:40 308 0 gusting 2 22.2
2020-Sep-29 13:30 22.2
2020-Sep-29 13:20 233 0 gusting 3 22.2
2020-Sep-29 13:10 030 22.2
2020-Sep-29 13:00 22.2
2020-Sep-29 12:50 233 22.2
2020-Sep-29 12:40 221 0 gusting 2 22.8
2020-Sep-29 12:30 243 0 gusting 2 22.8
2020-Sep-29 12:20 190 22.8
2020-Sep-29 12:10 188 0 gusting 2 22.8
2020-Sep-29 12:00 128 0 gusting 2 22.8
2020-Sep-29 11:50 141 0 gusting 2 22.8
2020-Sep-29 11:40 120 0 gusting 1 22.8
2020-Sep-29 11:30 163 1 gusting 4 22.8
2020-Sep-29 11:20 239 0 gusting 2 22.8
2020-Sep-29 11:10 239 0 gusting 2 22.8
2020-Sep-29 11:00 295 1 gusting 2 22.8
2020-Sep-29 10:50 175 2 gusting 5 22.8
2020-Sep-29 10:40 22.8
2020-Sep-29 10:30 224 0 gusting 3 22.8
2020-Sep-29 10:20 289 1 gusting 2 22.8
2020-Sep-29 10:10 314 22.8
2020-Sep-29 10:00 22.8
2020-Sep-29 09:50 237 22.8
2020-Sep-29 09:40 273 1 gusting 2 23.3
2020-Sep-29 09:30 187 23.3
2020-Sep-29 09:20 242 0 gusting 2 23.3
2020-Sep-29 09:10 206 0 gusting 2 23.3
2020-Sep-29 09:00 302 0 gusting 3 23.9
2020-Sep-29 08:50 349 0 gusting 4 23.9
2020-Sep-29 08:40 025 23.9
2020-Sep-29 08:30 23.9
2020-Sep-29 08:20 24.4
2020-Sep-29 08:10 259 1 gusting 2 24.4
2020-Sep-29 08:00 005 0 gusting 4 24.4
2020-Sep-29 07:50 358 2 gusting 4 25.0
2020-Sep-29 07:40 269 1 gusting 2 25.0
2020-Sep-29 07:30 232 1 gusting 3 25.0
2020-Sep-29 07:20 331 0 gusting 3 25.0
2020-Sep-29 07:10 007 0 gusting 3 25.6
2020-Sep-29 07:00 323 0 gusting 3 25.6
2020-Sep-29 06:50 146 2 gusting 5 25.6
2020-Sep-29 06:40 165 1 gusting 4 26.1
2020-Sep-29 06:30 26.1
2020-Sep-29 06:20 152 26.1
2020-Sep-29 06:10 013 1 gusting 4 26.7
2020-Sep-29 06:00 157 3 gusting 7 26.7
2020-Sep-29 05:50 155 2 gusting 6 27.2
2020-Sep-29 05:40 030 1 gusting 4 27.2
2020-Sep-29 05:30 187 1 gusting 5 26.7
2020-Sep-29 05:20 147 1 gusting 4 26.7
2020-Sep-29 05:10 076 1 gusting 3 26.7
2020-Sep-29 05:00 315 1 gusting 6 26.7
2020-Sep-29 04:50 167 2 gusting 6 26.7
2020-Sep-29 04:40 138 0 gusting 6 26.1
2020-Sep-29 04:30 180 26.1
2020-Sep-29 04:20 194 2 gusting 5 26.1
2020-Sep-29 04:10 354 1 gusting 5 26.1
2020-Sep-29 04:00 004 1 gusting 6 26.1
2020-Sep-29 03:50 26.1
2020-Sep-29 03:40 26.1
2020-Sep-29 03:30 26.1
2020-Sep-29 03:20 184 0 gusting 4 26.1
2020-Sep-29 03:10 017 0 gusting 3 25.6
2020-Sep-29 03:00 146 1 gusting 3 25.6
2020-Sep-29 02:50 25.0
2020-Sep-29 02:40 25.6
2020-Sep-29 02:30 099 2 gusting 6 25.6
2020-Sep-29 02:20 256 1 gusting 4 25.0
2020-Sep-29 02:10 317 0 gusting 5 25.0
2020-Sep-29 02:00 018 1 gusting 3 25.0
2020-Sep-29 01:50 053 1 gusting 3 24.4
2020-Sep-29 01:40 034 0 gusting 3 23.9
2020-Sep-29 01:30 122 1 gusting 3 24.4
2020-Sep-29 01:20 007 3 gusting 6 24.4
2020-Sep-29 01:10 101 2 gusting 6 24.4
2020-Sep-29 01:00 038 2 gusting 6 23.9
2020-Sep-29 00:50 028 2 gusting 4 23.9
2020-Sep-29 00:40 092 1 gusting 3 23.9
2020-Sep-29 00:30 23.9
2020-Sep-29 00:20 143 1 gusting 5 23.9
2020-Sep-29 00:10 23.3
2020-Sep-29 00:00 300 1 gusting 2 22.8
2020-Sep-28 23:50 172 2 gusting 4 22.8
2020-Sep-28 23:40 165 0 gusting 2 22.8
2020-Sep-28 23:30 117 22.2
2020-Sep-28 23:20 153 0 gusting 3 21.7
2020-Sep-28 23:10 166 1 gusting 5 21.1
2020-Sep-28 23:00 21.1
2020-Sep-28 22:50 153 20.6
2020-Sep-28 22:40 20.6
2020-Sep-28 22:30 20.6
2020-Sep-28 22:20 20.6
2020-Sep-28 22:10 20.6
2020-Sep-28 22:00 20.6
2020-Sep-28 21:50 20.6
2020-Sep-28 21:40 20.6
2020-Sep-28 21:30 20.6
2020-Sep-28 21:20 20.6
2020-Sep-28 21:10 20.6
2020-Sep-28 21:00 20.6
2020-Sep-28 20:50 20.6
2020-Sep-28 20:40 20.6
2020-Sep-28 20:30 20.6
2020-Sep-28 20:20 20.6
2020-Sep-28 20:10 20.6
2020-Sep-28 20:00 20.6
2020-Sep-28 19:50 20.6
2020-Sep-28 19:40 20.6
2020-Sep-28 19:30 20.6
2020-Sep-28 19:20 20.6
2020-Sep-28 19:10 20.6
2020-Sep-28 19:00 20.6
2020-Sep-28 18:50 20.6
2020-Sep-28 18:40 20.6
2020-Sep-28 18:30 21.1
2020-Sep-28 18:20 21.1
2020-Sep-28 18:10 21.1
2020-Sep-28 18:01 21.1
2020-Sep-28 17:50 21.1
2020-Sep-28 17:40 21.1
2020-Sep-28 17:30 21.1
2020-Sep-28 17:20 21.1
2020-Sep-28 17:10 21.1
2020-Sep-28 17:00 21.1
2020-Sep-28 16:50 21.1
2020-Sep-28 16:41 21.1
2020-Sep-28 16:30 21.1
2020-Sep-28 16:20 21.1
2020-Sep-28 16:10 21.7
2020-Sep-28 16:00 21.7
2020-Sep-28 15:50 21.7
2020-Sep-28 15:40 21.7
2020-Sep-28 15:30 21.7
2020-Sep-28 15:20 21.7
2020-Sep-28 15:10 155 21.7
2020-Sep-28 15:00 21.7
2020-Sep-28 14:50 159 0 gusting 2 21.7
2020-Sep-28 14:40 122 21.7
2020-Sep-28 14:30 21.7
2020-Sep-28 14:20 21.7
2020-Sep-28 14:10 203 21.7
2020-Sep-28 14:00 132 22.2
2020-Sep-28 13:50 22.2
2020-Sep-28 13:40 136 0 gusting 2 22.2
2020-Sep-28 13:30 156 0 gusting 3 22.2
2020-Sep-28 13:20 134 22.2
2020-Sep-28 13:10 22.2
2020-Sep-28 13:00 177 1 gusting 4 22.2
2020-Sep-28 12:50 184 22.2
2020-Sep-28 12:40 157 0 gusting 2 22.2
2020-Sep-28 12:30 162 0 gusting 3 22.2
2020-Sep-28 12:20 115 22.2
2020-Sep-28 12:10 126 0 gusting 3 22.2
2020-Sep-28 12:00 142 0 gusting 3 22.2
2020-Sep-28 11:50 152 0 gusting 2 22.2
2020-Sep-28 11:40 129 0 gusting 3 22.2
2020-Sep-28 11:30 151 22.8
2020-Sep-28 11:20 202 22.8
2020-Sep-28 11:10 144 22.8
2020-Sep-28 11:00 134 1 gusting 4 22.8
2020-Sep-28 10:50 171 2 gusting 5 22.8
2020-Sep-28 10:40 139 2 gusting 5 22.8
2020-Sep-28 10:30 161 1 gusting 6 22.8
2020-Sep-28 10:20 131 2 gusting 5 22.8
2020-Sep-28 10:10 153 2 gusting 6 23.3
2020-Sep-28 10:00 120 0 gusting 3 23.3
2020-Sep-28 09:50 158 2 gusting 6 23.3
2020-Sep-28 09:40 169 23.9
2020-Sep-28 09:30 141 1 gusting 4 23.9
2020-Sep-28 09:20 166 3 gusting 6 24.4
2020-Sep-28 09:10 167 1 gusting 5 24.4
2020-Sep-28 09:00 180 2 gusting 4 25.0
2020-Sep-28 08:50 150 3 gusting 7 25.0
2020-Sep-28 08:40 192 2 gusting 5 25.6
2020-Sep-28 08:30 168 2 gusting 6 25.6
2020-Sep-28 08:20 211 0 gusting 6 25.6
2020-Sep-28 08:10 154 1 gusting 4 26.1
2020-Sep-28 08:00 138 3 gusting 6 26.1
2020-Sep-28 07:50 169 2 gusting 7 26.1
2020-Sep-28 07:40 342 3 gusting 5 26.1
2020-Sep-28 07:30 139 1 gusting 6 26.1
2020-Sep-28 07:20 310 1 gusting 5 26.1
2020-Sep-28 07:10 151 3 gusting 6 26.7
2020-Sep-28 07:00 170 2 gusting 7 26.7
2020-Sep-28 06:50 172 2 gusting 6 26.7
2020-Sep-28 06:40 205 1 gusting 5 26.7
2020-Sep-28 06:30 156 2 gusting 6 27.2
2020-Sep-28 06:20 213 3 gusting 6 26.7
2020-Sep-28 06:10 147 2 gusting 8 27.2
2020-Sep-28 06:00 162 2 gusting 6 26.7
2020-Sep-28 05:50 103 0 gusting 4 26.7
2020-Sep-28 05:40 155 5 gusting 8 26.7
2020-Sep-28 05:30 234 1 gusting 6 26.1
2020-Sep-28 05:20 151 3 gusting 5 25.6
2020-Sep-28 05:10 144 2 gusting 7 26.1
2020-Sep-28 05:00 231 0 gusting 5 26.7
2020-Sep-28 04:50 157 0 gusting 3 27.2
2020-Sep-28 04:40 147 4 gusting 7 27.2
2020-Sep-28 04:30 192 1 gusting 4 27.2
2020-Sep-28 04:20 127 4 gusting 8 27.2
2020-Sep-28 04:10 186 1 gusting 3 27.2
2020-Sep-28 04:00 191 2 gusting 5 27.2
2020-Sep-28 03:50 040 0 gusting 3 26.7
2020-Sep-28 03:40 278 0 gusting 4 26.7
2020-Sep-28 03:30 157 5 gusting 9 26.7
2020-Sep-28 03:20 164 2 gusting 6 26.1
2020-Sep-28 03:10 207 2 gusting 5 26.1
2020-Sep-28 03:00 163 2 gusting 5 25.6
2020-Sep-28 02:50 185 2 gusting 4 25.6
2020-Sep-28 02:40 137 2 gusting 6 25.6
2020-Sep-28 02:30 146 0 gusting 5 25.6
2020-Sep-28 02:20 135 2 gusting 6 25.6
2020-Sep-28 02:10 169 25.6
2020-Sep-28 02:00 231 0 gusting 5 25.6
2020-Sep-28 01:50 156 0 gusting 4 25.6
2020-Sep-28 01:40 255 2 gusting 6 25.0
2020-Sep-28 01:30 096 1 gusting 6 25.0
2020-Sep-28 01:20 172 0 gusting 3 25.0
2020-Sep-28 01:10 278 2 gusting 3 25.0
2020-Sep-28 01:00 274 25.0
2020-Sep-28 00:50 155 0 gusting 5 24.4
2020-Sep-28 00:40 191 1 gusting 3 24.4
2020-Sep-28 00:30 128 2 gusting 6 23.9
2020-Sep-28 00:20 160 1 gusting 4 23.3
2020-Sep-28 00:10 174 2 gusting 5 23.3
2020-Sep-28 00:00 171 2 gusting 5 22.8
2020-Sep-27 23:50 140 1 gusting 3 22.2
2020-Sep-27 23:40 119 0 gusting 2 21.7
2020-Sep-27 23:30 21.7
2020-Sep-27 23:20 21.1
2020-Sep-27 23:10 111 21.1
2020-Sep-27 23:00 111 21.1
2020-Sep-27 22:50 20.6
2020-Sep-27 22:40 20.6
2020-Sep-27 22:30 20.6
2020-Sep-27 22:20 20.6
2020-Sep-27 22:10 20.6
2020-Sep-27 22:00 20.6
2020-Sep-27 21:50 20.6
2020-Sep-27 21:40 20.6
2020-Sep-27 21:30 20.6
2020-Sep-27 21:20 20.6
2020-Sep-27 21:10 20.6
2020-Sep-27 21:00 20.6
2020-Sep-27 20:50 20.6
2020-Sep-27 20:40 20.6
2020-Sep-27 20:30 20.6
2020-Sep-27 20:20 20.6
2020-Sep-27 20:10 21.1
2020-Sep-27 20:00 110 21.1
2020-Sep-27 19:50 21.1
2020-Sep-27 19:40 21.1
2020-Sep-27 19:30 21.1
2020-Sep-27 19:20 110 21.1
2020-Sep-27 19:10 130 21.1
2020-Sep-27 19:00 155 21.1
2020-Sep-27 18:50 21.1
2020-Sep-27 18:40 21.1
2020-Sep-27 18:30 21.1
2020-Sep-27 18:20 21.1
2020-Sep-27 18:10 21.1
2020-Sep-27 18:00 21.1
2020-Sep-27 17:50 21.7
2020-Sep-27 17:40 21.7
2020-Sep-27 17:30 157 21.7
2020-Sep-27 17:20 124 1 gusting 3 21.7
2020-Sep-27 17:10 158 21.1
2020-Sep-27 17:00 21.1
2020-Sep-27 16:50 21.1
2020-Sep-27 16:40 21.1
2020-Sep-27 16:30 21.1
2020-Sep-27 16:20 21.1
2020-Sep-27 16:10 21.1
2020-Sep-27 16:00 21.7